Location: Unspecified
(43.4680°N, 87.1740°E)
Time: 20:21:05
(UTC+00:00)

HJ-1C - Pass Details

Date: 17 April 2021
Orbit: 429 x 438 km, 97.1° (Epoch: 12 May)

Event Time Altitude Azimuth Distance (km) Brightness Sun altitude
Rises 13:23:25 0° 178° (S) 2,387 6.8 -5.4°
Reaches altitude 10° 13:25:27 10° 184° (S) 1,527 5.9 -5.8°
Maximum altitude 13:28:38 50° 260° (W) 561 4.3 -6.3°
Drops below altitude 10° 13:31:52 10° 338° (NNW) 1,547 6.8 -6.9°
Sets 13:33:56 0° 343° (NNW) 2,422 7.7 -7.2°
